• Processing (Info)

  • MPEC 2017-U141: 2013 UY17

    The following Minor Planet Electronic Circular may be linked-to from your own Web pages, but must not otherwise be redistributed electronically.

    A form allowing access to any MPEC is at the bottom of this page.


    Read MPEC 2017-U140 Read MPEC 2017-U142


    M.P.E.C. 2017-U141                               Issued 2017 Oct. 20, 01:24 UT
    
         The Minor Planet Electronic Circulars contain information on unusual
             minor planets and routine data on comets.  They are published
        on behalf of Division F of the International Astronomical Union by the
              Minor Planet Center, Smithsonian Astrophysical Observatory,
                              Cambridge, MA 02138, U.S.A.
    
                 Prepared using the Tamkin Foundation Computer Network
    
                                  MPC@CFA.HARVARD.EDU
                URL https://www.minorplanetcenter.net/    ISSN 1523-6714
    
                                       2013 UY17
    
    Observations:
         K13U17Y @C2013 08 02.53186 01 04 30.816+05 43 53.17         24.1 rqEU141568
         K13U17Y @C2013 08 02.57457 01 04 30.761+05 43 52.93         24.3 rqEU141568
         K13U17Y @C2013 08 30.44895 01 03 29.837+05 37 29.18         23.7 rqEU141568
         K13U17Y @C2013 08 31.45170 01 03 26.735+05 37 09.79         23.8 rqEU141568
         K13U17Y @C2013 08 31.51259 01 03 26.556+05 37 08.95         24.1 rqEU141568
         K13U17Y @C2013 08 31.51726 01 03 26.528+05 37 08.56         23.6 rqEU141568
         K13U17Y @C2013 09 04.43153 01 03 13.886+05 35 50.54         24.0 rqEU141568
         K13U17Y @C2013 09 04.47439 01 03 13.746+05 35 49.66         24.7 rqEU141568
         K13U17Y @C2013 09 04.50640 01 03 13.625+05 35 48.69         24.1 rqEU141568
         K13U17Y @C2013 10 06.41277 01 01 09.095+05 23 12.80         23.4 rqEU141568
         K13U17Y @C2013 10 06.50014 01 01 08.722+05 23 10.41         23.7 rqEU141568
         K13U17Y @C2013 10 06.50554 01 01 08.690+05 23 10.15         24.0 rqEU141568
         K13U17Y @C2013 10 06.51103 01 01 08.663+05 23 10.09         22.7 rqEU141568
         K13U17Y @C2013 10 06.51584 01 01 08.647+05 23 09.90         23.9 rqEU141568
         K13U17Y @C2013 10 09.54274 01 00 55.822+05 21 53.03         23.8 rqEU141568
         K13U17Y*@C2013 10 31.25446 00 59 26.251+05 13 04.27         23.6 rqEU141568
         K13U17Y @C2013 10 31.29744 00 59 26.074+05 13 03.23         23.9 rqEU141568
         K13U17Y @C2013 10 31.34016 00 59 25.906+05 13 02.31         23.8 rqEU141568
         K13U17Y @C2013 11 01.28119 00 59 22.269+05 12 41.28         23.9 rqEU141568
         K13U17Y @C2013 11 01.40856 00 59 21.764+05 12 38.35         23.8 rqEU141568
         K13U17Y @C2013 11 05.45881 00 59 06.474+05 11 09.93         23.8 rqEU141568
         K13U17Y @C2013 12 04.27126 00 57 41.941+05 03 20.75         23.8 rqEU141568
         K13U17Y @C2013 12 04.32344 00 57 41.843+05 03 20.23         24.1 rqEU141568
         K13U17Y @C2014 06 27.59003 01 08 31.034+06 14 32.99         23.9 rqEU141568
         K13U17Y @C2014 06 28.59510 01 08 32.754+06 14 43.12         24.1 rqEU141568
         K13U17Y @C2014 07 24.55310 01 08 49.447+06 16 14.18         23.9 rqEU141568
         K13U17Y @C2014 07 27.58380 01 08 47.871+06 16 03.28         24.3 rqEU141568
         K13U17Y @C2014 08 22.56814 01 08 06.060+06 11 39.69         23.6 rqEU141568
         K13U17Y @C2014 08 22.58822 01 08 06.005+06 11 39.78         23.7 rqEU141568
         K13U17Y @C2014 08 22.59325 01 08 05.978+06 11 39.58         24.0 rqEU141568
         K13U17Y @C2014 08 28.43479 01 07 50.202+06 10 02.41         23.5 rqEU141568
         K13U17Y @C2014 10 23.35237 01 04 13.473+05 48 22.82         23.8 rqEU141568
         K13U17Y @C2014 10 27.39107 01 03 56.931+05 46 46.12         23.7 rqEU141568
         K13U17Y @C2014 12 17.27453 01 01 33.369+05 33 34.06         24.0 rqEU141568
         K13U17Y @C2015 01 17.30307 01 01 39.198+05 35 21.38         24.2 rqEU141568
         K13U17Y @C2015 08 20.50656 01 12 24.366+06 43 47.39         24.1 rqEU141568
         K13U17Y @C2015 12 07.39423 01 06 00.323+06 06 27.35         24.3 wqEU141568
    
    Observer details:
    568 Mauna Kea.  Observers M. T. Bannister, J. J. Kavelaars, B. J. Gladman,
        J.-M. Petit, T. Burdullis.  Measurers S. D. J. Gwyn, Y.-T. Chen,
        M. Alexandersen.  3.6-m Canada-France-Hawaii Telescope + CCD.
    
    Orbital elements:
    2013 UY17
    Epoch 2017 Sept. 4.0 TT = JDT 2458000.5                 MPC
    M 123.03189              (2000.0)            P               Q
    n   0.00336042     Peri.  223.00144     -0.30472822     +0.95167460
    a  44.1441907      Node    29.31784     -0.85134197     -0.25420028
    e   0.0564115      Incl.    4.46973     -0.42703345     -0.17233015
    P 293              H    7.4           G   0.15           U   4
    Residuals in seconds of arc
    130802 568  0.0   0.0     131006 568  0.0   0.1-    140727 568  0.2-  0.0
    130802 568  0.0   0.1+    131009 568  0.3+  0.1-    140822 568  0.0   0.3-
    130830 568  0.1-  0.2+    131031 568  0.1+  0.1-    140822 568  0.0   0.1+
    130831 568  0.0   0.0     131031 568  0.0   0.1-    140822 568  0.2-  0.0
    130831 568  0.2+  0.3+    131031 568  0.0   0.1-    140828 568  0.0   0.1+
    130831 568  0.0   0.0     131101 568  0.0   0.1+    141023 568  0.0   0.0
    130904 568  0.0   0.0     131101 568  0.1-  0.0     141027 568  0.0   0.0
    130904 568  0.1+  0.0     131105 568  0.0   0.0     141217 568  0.1-  0.0
    130904 568  0.1-  0.3-    131204 568  0.1-  0.0     150117 568  0.2+  0.0
    131006 568  0.0   0.2+    131204 568  0.0   0.0     150820 568  0.1+  0.0
    131006 568  0.1+  0.0     140627 568  0.0   0.1+    151207 568  0.0   0.0
    131006 568  0.1-  0.1-    140628 568  0.0   0.1+
    131006 568  0.1-  0.0     140724 568  0.0   0.1+
    
    Ephemeris:
    2013 UY17                a,e,i = 44.14, 0.06, 4                  q = 41.654
    Date    TT    R. A. (2000) Decl.     Delta      r     Elong.  Phase     V
    2017 09 20    01 19 13.8 +07 36 50  44.6796 45.5977   155.8     0.5    24.0
    ...
    2017 10 05    01 18 13.2 +07 30 56  44.6120 45.5994   170.8     0.2    24.0
    ...
    2017 10 13    01 17 39.2 +07 27 39  44.6028 45.6003   178.7     0.0    24.0
    ...
    2017 10 19    01 17 13.6 +07 25 11  44.6086 45.6010   175.0     0.1    24.0
    2017 10 20    01 17 09.3 +07 24 46  44.6106 45.6011   174.0     0.1    24.0
    2017 10 21    01 17 05.1 +07 24 22  44.6129 45.6012   173.0     0.2    24.0
    ...
    2017 10 27    01 16 39.9 +07 21 57  44.6332 45.6019   166.9     0.3    24.0
    ...
    2017 11 04    01 16 07.5 +07 18 52  44.6768 45.6029   158.8     0.5    24.0
    ...
    2017 11 19    01 15 12.9 +07 13 43  44.8065 45.6046   143.5     0.7    24.1
    
    A. U. Tomatic                (C) Copyright 2017 MPC           M.P.E.C. 2017-U141
    

    Read MPEC 2017-U140 Read MPEC 2017-U142


    MPEC number:

    Enter an MPEC number in one of the following forms:

    • 1997-B01 (the full form)
    • J97B01 (the packed version of the full form)
    • B01 (the abbreviated form)